Location: Newark
(37.8333°N, 119.5000°W)
Time: 12:03:25
(UTC+00:00)

Tiros 1 despin weight - Pass Details

Date: 25 August 2019
Orbit: 595 x 642 km, 48.2° (Epoch: 15 September)

Event Time Altitude Azimuth Distance (km) Brightness Sun altitude
Rises 05:47:55 0° 227° (SW) 2,816 - -32.3°
Reaches altitude 10° 05:50:12 10° 225° (SW) 1,919 - -32.6°
Maximum altitude 05:54:33 67° 143° (SE) 647 - -33.1°
Drops below altitude 10° 05:58:59 10° 61° (ENE) 1,945 - -33.7°
Sets 06:01:18 0° 59° (ENE) 2,857 - -33.9°
